2023/09/25 00:00:00, 8.3,16.5
2023/09/25 00:10:00, 1.1,17.1
2023/09/25 00:20:00, 0.2,16.8
2023/09/25 00:30:00, 0.2,16.6
2023/09/25 00:40:00, 0.2,16.8
2023/09/25 00:50:00, 4.6,16.7
2023/09/25 01:00:00, 9.8,16.9
2023/09/25 01:10:00, 9.3,16.9
2023/09/25 01:20:00, 8.8,17.0
2023/09/25 01:30:00, 8.2,17.1
2023/09/25 01:40:00, 7.8,17.6
2023/09/25 01:50:00, 7.4,17.6
2023/09/25 02:00:00, 7.4,17.3
2023/09/25 02:10:00, 7.3,17.4
2023/09/25 02:20:00, 7.4,17.4
2023/09/25 02:30:00, 7.4,17.3
2023/09/25 02:40:00, 7.3,17.3
2023/09/25 02:50:00, 7.3,17.8
2023/09/25 03:00:00, 7.3,17.6
2023/09/25 03:10:00, 7.3,17.8
2023/09/25 03:20:00, 7.3,17.7
2023/09/25 03:30:00, 7.4,17.7
2023/09/25 03:40:00, 7.4,17.8
2023/09/25 03:50:00, 7.5,17.6
2023/09/25 04:00:00, 6.4,17.5
2023/09/25 04:10:00, 6.8,17.4
2023/09/25 04:20:00, 8.2,17.3
2023/09/25 04:30:00, 8.4,17.6
2023/09/25 04:40:00, 8.3,17.1
2023/09/25 04:50:00, 8.2,17.2
2023/09/25 05:00:00, 8.2,17.4
2023/09/25 05:10:00, 8.1,17.5
2023/09/25 05:20:00, 8.0,17.3
2023/09/25 05:30:00, 8.2,17.5
2023/09/25 05:40:00, 8.4,17.3
2023/09/25 05:50:00, 8.9,17.0
2023/09/25 06:00:00, 9.1,17.3
2023/09/25 06:10:00, 9.0,17.3
2023/09/25 06:20:00, 8.8,17.6
2023/09/25 06:30:00, 8.4,17.6
2023/09/25 06:40:00, 8.3,18.1
2023/09/25 06:50:00, 8.2,18.6
2023/09/25 07:00:00, 8.4,18.9
2023/09/25 07:10:00, 8.9,19.0
2023/09/25 07:20:00, 9.2,19.1
2023/09/25 07:30:00, 9.1,19.5
2023/09/25 07:40:00, 8.9,22.5
2023/09/25 07:50:00, 8.4,24.9
2023/09/25 08:00:00, 8.1,23.8
2023/09/25 08:10:00, 7.9,24.5
2023/09/25 08:20:00, 7.9,22.7
2023/09/25 08:30:00, 8.2,23.0
2023/09/25 08:40:00, 8.3,23.2
2023/09/25 08:50:00, 8.3,23.7
2023/09/25 09:00:00, 7.7,23.7
2023/09/25 09:10:00, 7.3,23.7
2023/09/25 09:20:00, 7.1,23.6
2023/09/25 09:30:00, 7.1,23.1
2023/09/25 09:40:00, 7.3,23.4
2023/09/25 09:50:00, 7.6,23.2
2023/09/25 10:00:00, 7.3,23.3
2023/09/25 10:10:00, 7.1,23.5
2023/09/25 10:20:00, 7.3,23.5
2023/09/25 10:30:00, 7.6,23.8
2023/09/25 10:40:00, 7.9,24.5
2023/09/25 10:50:00, 8.4,25.2
2023/09/25 11:00:00, 8.3,26.3
2023/09/25 11:10:00, 7.9,26.4
2023/09/25 11:20:00, 8.2,27.8
2023/09/25 11:30:00, 9.1,28.0
2023/09/25 11:40:00, 9.6,27.9
2023/09/25 11:50:00, 9.1,28.2
2023/09/25 12:00:00, 8.1,28.6
2023/09/25 12:10:00, 8.4,28.6
2023/09/25 12:20:00, 9.2,29.7
2023/09/25 12:30:00, 9.0,28.7
2023/09/25 12:40:00, 7.7,29.3
2023/09/25 12:50:00, 7.1,30.2
2023/09/25 13:00:00, 7.4,31.0
2023/09/25 13:10:00, 8.0,31.7
2023/09/25 13:20:00, 8.2,31.4
2023/09/25 13:30:00, 7.5,31.2
2023/09/25 13:40:00, 7.3,29.7
2023/09/25 13:50:00, 7.4,29.0
2023/09/25 14:00:00, 7.7,29.0
2023/09/25 14:10:00, 7.9,30.0
2023/09/25 14:20:00, 8.0,30.8
2023/09/25 14:30:00, 7.9,31.0
2023/09/25 14:40:00, 7.7,29.1
2023/09/25 14:50:00, 7.7,29.3
2023/09/25 15:00:00, 7.8,28.6
2023/09/25 15:10:00, 7.4,28.4
2023/09/25 15:20:00, 7.2,29.4
2023/09/25 15:30:00, 7.3,30.2
2023/09/25 15:40:00, 7.3,28.6
2023/09/25 15:50:00, 7.3,27.6
2023/09/25 16:00:00, 7.4,27.7
2023/09/25 16:10:00, 7.3,29.4
2023/09/25 16:20:00, 6.9,32.2
2023/09/25 16:30:00, 6.6,28.0
2023/09/25 16:40:00, 6.5,28.7
2023/09/25 16:50:00, 6.6,28.6
2023/09/25 17:00:00, 6.9,26.5
2023/09/25 17:10:00, 7.3,24.5
2023/09/25 17:20:00, 7.6,24.0
2023/09/25 17:30:00, 7.8,23.3
2023/09/25 17:40:00, 7.6,23.1
2023/09/25 17:50:00, 7.2,22.9
2023/09/25 18:00:00, 6.6,22.5
2023/09/25 18:10:00, 6.1,22.0
2023/09/25 18:20:00, 3.8,22.0
2023/09/25 18:30:00, 1.3,21.8
2023/09/25 18:40:00, 0.2,21.9
2023/09/25 18:50:00, 0.2,21.6
2023/09/25 19:00:00, 0.2,21.4
2023/09/25 19:10:00, 0.2,21.6
2023/09/25 19:20:00, 0.2,21.7
2023/09/25 19:30:00, 0.2,21.5
2023/09/25 19:40:00, 0.2,21.6
2023/09/25 19:50:00, 0.2,21.3
2023/09/25 20:00:00, 0.2,21.3
2023/09/25 20:10:00, 0.2,21.2
2023/09/25 20:20:00, 0.2,21.3
2023/09/25 20:30:00, 0.2,21.6
2023/09/25 20:40:00, 0.2,21.1
2023/09/25 20:50:00, 0.2,20.8
2023/09/25 21:00:00, 0.2,21.1
2023/09/25 21:10:00, 0.5,21.1
2023/09/25 21:20:00, 3.8,21.0
2023/09/25 21:30:00, 6.2,21.1
2023/09/25 21:40:00, 6.3,20.8
2023/09/25 21:50:00, 6.4,20.8
2023/09/25 22:00:00, 6.4,20.4
2023/09/25 22:10:00, 6.3,21.0
2023/09/25 22:20:00, 6.3,20.6
2023/09/25 22:30:00, 6.3,20.7
2023/09/25 22:40:00, 6.3,20.4
2023/09/25 22:50:00, 6.3,20.7
2023/09/25 23:00:00, 6.3,20.4
2023/09/25 23:10:00, 6.3,20.5
2023/09/25 23:20:00, 6.3,20.6
2023/09/25 23:30:00, 6.3,20.6
2023/09/25 23:40:00, 6.5,20.6
2023/09/25 23:50:00, 6.9,20.2
